sat.trackr.live / text

‹ back to catalog

STARLINK-36377

NORAD 67812 · 2026-032R

PAYLOAD ACTIVE UNKNOWN

§ Identity

Operator
Country
US
Launch date
2026-02-15
Launch site
AFWTR
Launch vehicle
Mass (kg)
RCS (m²)

Purposes: comms

External: N2YO · Heavens-Above · Gunter

§ Orbital elements

Epoch: 2026-05-25T04:00:03.998880Z

Period
93.90 min
Inclination
97.2853°
Eccentricity
0.0001484
Mean motion
15.33465127 rev/d
Perigee alt
464.5 km
Apogee alt
466.5 km
Semi-major
6,843.6 km
B*
-1.5732e-3
RAAN
333.3158°
Arg perigee
94.1767°
Mean anomaly
306.9117°
Rev number
585

§ Raw data

STARLINK-363771 67812U 26032R   26145.16671295 -.00050559  00000+0 -15732-2 0  99972 67812  97.2853 333.3158 0001484  94.1767 306.9117 15.33465127  5859

JSON: /api/v1/satellites/67812 · /tle

For live sub-satellite position, see the globe view (requires WebGL).

§ Visibility from observer

Set your observer location to see the next 7 days of passes ≥ 10°. The values pass through the URL so the page stays shareable.

No JS? Fill the form by hand. The geolocation button needs JavaScript.